Home > Weather > Thiès > Past weeks

Flag for Senegal Weather for the Past 2 Weeks in Thiès, Senegal

Now
72 °F

Sunny.


Feels Like: 71 °F
Forecast: N/A
Wind: 14 mph from North

Location: Dakar / Yoff

Current Time: May 2, 2016 at 7:29:49 PM

Latest Report: May 2, 2016 at 7:00 PM


Visibility: 10 mi

Pressure: 29.80 "Hg

Humidity: 83%

Dew Point: 66 °F

Location of ThièsLocation

Historic Weather in Thiès — Graph

°F

Thiès Temperature Yesterday

Maximum temperature yesterday: 77 °F (at 11:30 AM)
Minimum temperature yesterday: 68 °F (at 12:00 AM)
Average temperature yesterday: 72 °F

High & Low Weather Summary for the Past Weeks

 TemperatureHumidityPressure
High81 °F (Apr 17, 6:00 PM)94% (Apr 23, 10:30 PM)32.52 "Hg (Apr 23, 10:30 PM)
Low66 °F (Apr 25, 6:30 AM)33% (Apr 18, 1:30 AM)29.74 "Hg (Apr 22, 5:30 PM)
Average72 °F78%29.85 "Hg
* Reported Apr 17 6:00 PM — May 2 6:00 PM, Thiès, Weather by CustomWeather, © 2016

Note: Actual official high and low records may vary slightly from our data, if they occured in-between our weather recording intervals... More about our weather records

Advertising

Thiès Weather History for the Previous 24 Hours

Scroll right to see more
 ConditionsComfort  
Time TempWeatherWind HumidityBarometerVisibility
6:00 PM
Mon, May 2
73 °FSunny.16 mph78%29.80 "Hg10 mi
5:30 PM73 °FSunny.15 mph78%29.80 "Hg10 mi
5:00 PM75 °FSunny.15 mph74%29.80 "Hg10 mi
4:30 PM75 °FSunny.16 mph74%29.80 "Hg10 mi
4:00 PM75 °FSunny.15 mph74%29.80 "Hg10 mi
3:30 PM77 °FSunny.16 mph69%29.80 "Hg10 mi
3:00 PM77 °FSunny.16 mph69%29.83 "Hg10 mi
2:30 PM75 °FSunny.N/A74%29.83 "Hg10 mi
2:00 PM77 °FSunny.18 mph69%N/A10 mi
1:30 PM77 °FSunny.18 mph69%29.86 "Hg10 mi
1:00 PM75 °FSunny.22 mph74%29.86 "Hg10 mi
12:00 PM77 °FSunny.21 mph69%29.86 "Hg10 mi
11:30 AM75 °FSunny.22 mph74%29.86 "Hg10 mi
11:00 AM75 °FSunny.23 mph74%29.86 "Hg10 mi
10:30 AM73 °FSunny.23 mph78%29.86 "Hg10 mi
10:00 AM73 °FSunny.25 mph78%29.83 "Hg10 mi
9:30 AM73 °FSunny.23 mph78%29.83 "Hg10 mi
9:00 AM72 °FSunny.23 mph83%29.83 "Hg10 mi
8:30 AM70 °FSunny.23 mph88%29.83 "Hg10 mi
8:00 AM70 °FSunny.23 mph88%29.83 "Hg10 mi
7:30 AM70 °FSunny.21 mph83%29.80 "Hg10 mi
7:00 AM68 °FSunny.21 mph88%29.80 "Hg10 mi
6:30 AM68 °FClear.20 mph88%29.80 "Hg10 mi
5:00 AM68 °FClear.17 mph94%29.80 "Hg10 mi
4:30 AM70 °FClear.17 mph83%29.80 "Hg10 mi
4:00 AM70 °FClear.17 mph83%29.80 "Hg10 mi
3:30 AM70 °FClear.16 mph83%29.80 "Hg10 mi
3:00 AM70 °FClear.16 mph83%29.80 "Hg10 mi
2:30 AM70 °FClear.15 mph94%29.80 "Hg10 mi
2:00 AM70 °FClear.12 mph94%29.83 "Hg10 mi
1:30 AM70 °FClear.12 mph94%29.83 "Hg10 mi
1:00 AM70 °FClear.12 mph94%29.86 "Hg10 mi
12:30 AM70 °FClear.12 mph94%29.86 "Hg10 mi
12:00 AM70 °FClear.12 mph88%29.86 "Hg10 mi
11:00 PM
Sun, May 1
70 °FClear.12 mph88%29.86 "Hg10 mi
10:30 PM70 °FClear.No wind88%29.86 "Hg10 mi
10:00 PM70 °FClear.15 mph88%29.86 "Hg10 mi
9:00 PM70 °FClear.12 mph88%29.86 "Hg10 mi
8:30 PM70 °FClear.12 mph88%29.86 "Hg10 mi
8:00 PM70 °FClear.10 mph88%29.83 "Hg10 mi
7:30 PM72 °FClear.12 mph83%29.83 "Hg10 mi
7:00 PM72 °FSunny.14 mph83%29.83 "Hg10 mi
Weather by CustomWeather, © 2016

See weather overviewHow to use our weather pages